User: anonymous   Login
Location: Nantong Television Tower
(32.0188°N, 120.8512°E)
Time: 17:43:59
(UTC+08:00)
Language:

Vanguard 3 - Orbit

View from above orbital plane
View from above orbital plane
View from above satellite
View from above satellite

Ground track
Ground track

The orbit data is extracted from the following two-line orbital elements,

1 00020U 59007A   15091.20593715  .00002577  00000-0  10498-2 0  9996
2 00020 033.3530 122.6687 1670791 250.2000 091.1343 11.54534097 10330
Epoch (UTC): 01 April 2015 04:56:32
Eccentricity: 0.1670791
inclination: 33.3530°
perigee height: 509 km
apogee height: 3272 km
right ascension of ascending node: 122.6687°
argument of perigee: 250.2000°
revolutions per day: 11.54534097
mean anomaly at epoch: 91.1343°
orbit number at epoch: 1033

The dashed part of the orbit path shows where the satellite is in the earth's shadow,  

DLR